Wind_Speed
15 16 17 18 19 21 23 25 26 27 27 26 26 24 23 22 21 21 21 21 21 21 20 20 20 21 22 23 25 26 27 31 34 35 38 40 39 41 42 41 39 44 48 50 53
12 12 13 14 16 18 20 22 24 25 26 26 24 22 21 21 20 19 19 20 20 18 17 15 14 14 15 17 18 21 22 24 29 32 36 38 38 40 40 38 40 47 48 50 50
8 8 8 8 10 11 13 16 19 22 23 22 20 19 18 19 16 17 15 13 12 10 11 11 13 15 17 21 22 24 26 28 31 36 36 35 36 39 40 41 40 47 51 48 50
5 5 5 5 6 6 7 7 9 11 13 14 14 15 15 15 12 11 11 10 10 12 15 17 18 19 20 21 24 25 26 28 30 34 35 40 39 38 43 45 42 43 54 53 53
5 5 5 4 4 5 6 8 9 9 10 11 12 12 12 10 9 9 10 13 14 13 12 13 14 16 17 19 21 22 26 28 28 31 34 38 38 36 37 44 42 42 47 50 50
5 6 6 6 5 4 5 5 7 8 9 9 9 9 10 9 11 11 10 10 11 12 11 13 15 18 20 22 25 25 27 30 31 34 36 41 44 39 38 53 46 45 47 49 48
6 7 8 8 8 7 7 6 7 8 8 9 9 10 10 10 9 9 10 11 12 14 15 16 18 22 24 26 30 30 32 33 35 37 35 44 45 45 40 50 56 51 53 52 52
8 8 8 8 9 9 10 10 10 10 10 9 9 9 9 10 11 12 13 15 15 14 16 19 22 26 29 31 33 33 33 33 34 37 36 42 46 45 40 48 57 52 56 57 55
11 10 10 10 9 9 10 10 10 10 10 10 11 11 12 13 14 16 16 15 15 16 19 22 24 27 28 29 31 33 34 34 37 36 32 42 51 47 47 47 55 57 56 59 57
12 12 12 12 12 12 12 11 11 12 13 13 13 14 15 15 17 17 16 16 17 19 22 24 27 30 32 32 33 35 38 41 43 40 40 41 49 54 53 52 56 59 59 60 59
15 14 14 15 15 15 15 15 15 16 17 17 18 18 18 19 20 19 19 19 21 23 25 28 29 31 35 35 37 39 41 45 48 47 47 47 56 53 49 51 57 61 60 67 57
18 17 17 18 19 19 20 20 20 21 22 23 23 23 24 24 24 25 25 25 25 27 29 31 31 33 38 37 39 41 46 50 56 51 54 54 54 59 55 51 52 59 60 64 56
21 20 20 21 22 23 24 24 25 25 25 26 27 28 28 28 29 29 30 29 31 33 35 35 33 38 40 43 42 46 46 52 59 60 59 58 56 59 57 57 46 48 54 56 48
28 27 26 25 25 25 25 25 26 27 28 29 29 30 31 32 32 33 33 35 36 37 38 38 37 42 44 45 45 47 51 55 61 64 60 56 46 46 47 48 44 37 44 45 42
31 32 31 30 30 30 30 30 30 29 29 30 31 32 33 34 35 35 36 37 37 38 40 38 43 44 49 49 48 53 54 58 62 60 54 54 42 39 41 36 33 30 33 42 41
34 34 35 34 35 36 35 35 35 35 34 35 37 36 36 38 38 41 39 38 40 42 41 44 44 46 50 51 50 53 59 60 59 53 49 47 37 36 37 31 22 19 44 47 42
36 36 36 36 36 36 36 38 40 40 40 37 41 41 42 43 43 43 41 41 40 46 45 47 48 45 50 56 57 55 60 60 52 51 46 39 37 32 38 30 23 33 38 41 37
44 43 42 42 42 42 42 43 43 41 43 44 46 46 48 48 47 45 45 44 43 50 49 51 51 50 48 53 55 59 60 54 48 45 43 37 32 33 36 34 34 37 40 44 42
48 48 47 47 47 47 47 49 48 47 48 48 48 48 50 49 49 49 50 47 48 53 52 52 55 52 51 55 57 60 61 52 46 43 39 43 32 30 32 33 39 40 38 40 46
50 49 48 49 49 49 50 50 50 46 54 52 53 52 53 54 51 51 56 47 51 56 55 51 52 57 53 52 59 59 56 50 45 39 36 43 35 33 33 34 36 38 42 42 46
52 52 52 52 54 54 56 54 52 48 59 54 56 57 56 61 56 57 58 52 56 56 55 54 55 56 56 50 55 57 51 47 44 43 36 36 41 38 39 37 36 36 39 42 49
42 41 36 43 43 45 47 46 47 51 55 58 59 62 61 62 63 62 64 57 59 58 59 57 56 56 57 56 54 53 48 45 41 42 42 41 40 35 31 36 36 37 40 48 50
37 36 33 40 38 38 40 38 36 40 41 45 48 52 52 58 62 61 63 56 58 58 57 58 57 56 60 57 52 49 47 46 43 39 41 42 43 35 37 38 37 39 44 51 54
40 39 32 40 41 41 40 41 44 42 46 44 47 52 50 52 54 55 59 58 53 56 53 54 58 61 60 59 53 47 43 45 43 42 43 44 47 41 42 41 42 45 49 54 57
42 40 40 42 42 48 47 49 49 48 46 52 49 56 53 52 56 53 51 52 52 51 57 58 63 63 60 55 52 43 42 41 40 42 42 44 47 45 45 46 49 52 55 58 61
47 47 51 48 45 51 52 51 49 51 51 54 57 57 57 56 55 51 56 58 54 55 58 59 58 56 55 50 46 42 42 42 43 41 42 42 42 49 50 50 51 53 57 63 70
55 56 56 57 52 54 55 53 55 57 59 59 55 58 58 59 50 51 56 57 59 51 46 50 49 49 49 47 46 43 42 46 44 41 44 49 49 49 50 52 56 59 67 73 77
Wind_Direction
242 243 243 244 242 241 240 240 240 242 243 245 246 247 248 250 251 254 256 255 257 258 259 260 261 265 265 266 265 265 263 264 264 264 265 264 264 259 258 261 261 258 251 250 252
244 248 252 247 242 240 239 239 240 241 242 243 244 245 247 249 250 251 252 255 256 260 262 264 266 266 268 268 265 269 268 269 270 270 269 264 271 273 267 268 266 262 264 260 257
248 255 255 240 233 232 231 232 235 238 238 238 237 236 239 243 241 245 245 246 249 252 260 265 270 273 275 278 279 275 275 272 271 270 270 271 269 272 273 267 264 271 269 265 263
237 237 232 220 209 199 190 186 194 203 208 212 215 220 225 232 226 225 235 243 256 267 274 277 277 277 277 279 282 280 278 278 277 279 277 274 268 270 269 270 266 264 271 272 271
207 197 185 174 171 163 165 168 172 175 183 194 200 204 212 216 221 244 257 268 273 275 277 279 282 284 284 283 282 282 285 283 280 280 283 280 278 274 277 268 266 268 267 271 274
213 210 205 199 196 187 180 173 169 170 177 186 192 205 224 239 253 260 264 270 277 282 287 288 289 290 290 286 282 281 278 279 281 281 284 284 281 275 282 280 272 268 270 271 273
234 233 230 231 232 229 223 216 212 212 211 217 227 235 243 249 250 256 262 269 279 284 291 296 299 298 297 292 287 283 280 281 283 280 282 281 282 282 284 281 280 277 274 270 270
236 237 239 239 239 240 236 230 227 228 229 230 230 232 235 244 254 262 273 281 284 286 297 302 302 301 299 295 292 291 289 287 285 287 290 288 286 284 279 282 282 280 281 278 275
240 239 241 243 244 242 241 237 235 230 229 230 235 240 245 254 262 269 274 279 283 292 301 304 306 307 306 303 300 295 293 292 291 289 290 291 288 286 284 284 283 284 282 281 281
252 249 248 249 249 249 245 239 237 239 243 246 250 255 260 265 268 269 270 276 283 293 301 305 309 307 306 305 299 295 295 297 295 293 290 284 285 288 289 288 284 283 281 279 279
254 255 255 254 252 250 246 245 247 250 253 255 258 262 267 271 271 263 269 274 279 289 296 303 309 307 305 307 301 299 300 301 299 299 299 290 288 285 284 286 284 284 282 282 282
252 253 254 254 256 255 255 255 255 256 257 259 264 265 269 272 272 266 269 273 281 289 297 300 307 303 309 310 303 299 303 305 302 303 301 296 291 289 287 281 284 284 287 286 288
248 253 253 254 255 256 256 259 262 264 264 264 266 268 271 273 273 270 271 275 281 287 291 296 301 300 306 307 306 301 308 306 304 305 302 298 296 291 290 290 283 284 286 287 287
250 253 255 257 254 255 258 261 263 266 269 270 271 272 274 277 276 276 276 278 282 289 291 293 297 299 301 306 302 304 308 306 306 307 304 298 295 291 286 288 290 298 295 293 296
250 253 256 259 261 262 262 261 261 264 269 270 271 274 275 276 279 277 279 281 283 287 291 294 299 300 301 303 302 307 309 309 309 307 305 297 298 283 282 287 292 290 297 294 299
254 255 257 258 260 262 263 264 265 265 265 269 273 273 275 277 278 280 280 281 285 287 291 294 295 301 300 302 304 308 311 311 311 308 302 297 292 287 286 293 279 264 280 283 294
257 259 260 262 263 265 266 266 265 267 269 270 270 273 274 276 277 277 278 283 285 289 293 294 297 298 302 306 306 310 312 315 313 308 306 294 291 286 286 289 276 270 278 289 287
262 262 263 264 266 267 268 268 268 270 271 270 272 273 277 277 279 278 279 283 287 288 292 295 297 297 299 300 304 310 314 315 310 311 305 294 281 276 284 286 286 284 287 285 287
266 267 270 270 270 270 269 269 271 269 271 272 273 274 274 276 278 277 277 282 286 285 287 292 295 296 302 304 307 313 314 313 313 311 305 294 298 280 286 289 285 283 283 277 282
264 266 268 268 269 270 271 272 272 276 272 272 273 274 276 276 276 277 279 281 282 285 288 290 291 295 298 304 309 312 311 310 312 310 304 293 297 288 291 296 293 288 287 286 285
265 267 269 270 270 270 271 272 274 272 274 275 276 276 275 279 278 277 278 282 282 284 287 290 292 296 298 301 308 308 305 306 307 306 303 291 293 295 296 300 294 286 283 282 286
264 266 265 266 271 273 275 278 277 274 275 276 277 276 277 277 280 281 280 280 281 285 287 289 292 296 298 303 306 302 299 301 300 299 300 296 295 297 297 296 296 292 289 290 294
269 270 269 276 275 277 279 281 281 280 281 283 285 284 283 279 278 277 279 281 283 285 288 291 293 294 299 302 303 297 295 299 299 293 293 295 293 295 296 294 291 290 289 290 294
268 272 276 274 279 281 279 280 283 285 287 288 290 287 288 288 285 275 274 276 279 280 285 287 289 293 297 299 300 294 292 295 298 292 292 292 293 300 295 294 293 292 291 293 295
265 275 279 275 279 279 280 282 283 287 289 293 288 288 292 292 286 278 273 271 270 276 280 283 287 293 294 293 293 288 286 291 295 295 291 289 294 292 293 295 296 295 295 295 295
262 264 268 274 277 282 284 281 283 289 292 287 289 293 290 292 289 271 267 270 273 274 282 287 289 290 287 287 284 284 287 291 293 297 300 298 291 291 293 293 294 296 297 298 298
263 266 270 273 274 276 282 283 286 288 288 290 289 287 290 297 280 270 271 273 278 282 279 280 281 283 284 286 282 283 285 286 292 295 294 297 299 299 298 295 296 301 301 300 301
Height
10870 10871 10872 10872 10873 10875 10877 10878 10880 10882 10884 10887 10890 10892 10894 10895 10897 10898 10899 10900 10901 10902 10904 10904 10905 10904 10905 10905 10905 10905 10905 10902 10900 10900 10900 10902 10904 10905 10906 10908 10916 10913 10910 10910 10909
10867 10868 10868 10868 10869 10870 10872 10873 10875 10877 10880 10883 10886 10888 10890 10891 10893 10894 10896 10896 10897 10898 10899 10900 10900 10901 10900 10900 10901 10899 10899 10898 10895 10893 10889 10895 10892 10892 10897 10903 10901 10892 10899 10902 10904
10865 10865 10865 10865 10865 10866 10867 10869 10871 10873 10876 10879 10882 10885 10887 10888 10890 10891 10892 10893 10894 10895 10895 10896 10897 10897 10898 10896 10895 10895 10894 10893 10891 10887 10887 10887 10888 10889 10890 10891 10893 10885 10880 10889 10891
10863 10863 10863 10864 10864 10865 10866 10867 10868 10871 10873 10876 10879 10882 10884 10885 10887 10888 10889 10890 10891 10892 10893 10893 10893 10893 10893 10892 10889 10888 10888 10887 10885 10881 10881 10878 10883 10884 10881 10880 10886 10882 10867 10873 10875
10862 10863 10863 10864 10865 10865 10866 10867 10868 10870 10873 10875 10878 10880 10882 10883 10885 10886 10887 10887 10888 10889 10889 10889 10889 10888 10889 10888 10886 10884 10881 10879 10878 10875 10873 10868 10869 10871 10870 10867 10873 10870 10867 10862 10864
10861 10862 10863 10864 10865 10866 10867 10868 10870 10872 10874 10876 10878 10879 10880 10881 10882 10883 10884 10884 10884 10885 10886 10885 10884 10884 10884 10883 10881 10880 10877 10874 10873 10871 10868 10862 10857 10865 10863 10846 10856 10857 10855 10853 10854
10861 10862 10863 10864 10865 10866 10867 10869 10870 10872 10873 10875 10876 10877 10878 10878 10880 10880 10881 10881 10882 10882 10881 10881 10880 10879 10878 10876 10873 10872 10870 10868 10866 10864 10864 10854 10852 10851 10856 10844 10837 10840 10839 10842 10843
10860 10861 10862 10863 10864 10865 10866 10867 10868 10869 10871 10872 10873 10874 10875 10877 10877 10878 10878 10878 10878 10877 10877 10876 10875 10873 10871 10869 10865 10862 10862 10860 10859 10856 10856 10849 10843 10843 10847 10836 10826 10830 10823 10823 10827
10859 10859 10860 10861 10862 10863 10864 10865 10866 10867 10868 10869 10870 10872 10873 10874 10874 10875 10875 10874 10873 10872 10872 10870 10869 10866 10864 10862 10859 10855 10853 10853 10850 10850 10852 10842 10831 10835 10832 10831 10819 10814 10814 10808 10813
10856 10857 10858 10859 10860 10861 10862 10863 10864 10865 10866 10867 10868 10869 10870 10870 10870 10870 10870 10869 10868 10867 10866 10864 10862 10859 10857 10855 10852 10849 10846 10842 10840 10843 10841 10837 10825 10819 10816 10815 10809 10803 10800 10796 10798
10854 10855 10856 10856 10857 10859 10860 10861 10862 10863 10863 10864 10864 10865 10864 10865 10865 10865 10865 10864 10863 10862 10860 10858 10857 10853 10850 10848 10844 10840 10837 10833 10827 10826 10825 10823 10810 10812 10812 10803 10791 10786 10783 10771 10785
10851 10852 10852 10853 10854 10855 10856 10857 10858 10858 10860 10860 10860 10860 10860 10860 10860 10859 10859 10858 10857 10856 10854 10852 10851 10846 10842 10840 10836 10832 10827 10821 10811 10816 10808 10804 10800 10789 10792 10794 10786 10769 10766 10760 10769
10847 10848 10848 10849 10850 10851 10851 10852 10853 10853 10854 10855 10854 10854 10854 10854 10854 10853 10852 10852 10851 10850 10847 10846 10846 10838 10836 10831 10828 10822 10822 10813 10801 10798 10796 10788 10784 10774 10769 10768 10777 10764 10755 10751 10753
10841 10842 10843 10844 10845 10845 10846 10847 10848 10848 10847 10848 10848 10848 10848 10847 10847 10846 10845 10844 10843 10842 10839 10837 10836 10830 10827 10824 10818 10814 10810 10803 10792 10784 10778 10771 10779 10764 10761 10757 10754 10751 10744 10741 10741
10835 10836 10837 10838 10839 10839 10840 10840 10841 10842 10841 10841 10841 10840 10840 10840 10838 10838 10836 10836 10834 10832 10829 10830 10824 10822 10815 10812 10808 10802 10800 10792 10783 10772 10764 10752 10760 10753 10749 10749 10750 10746 10739 10732 10731
10828 10829 10830 10831 10831 10832 10832 10833 10833 10834 10834 10833 10831 10832 10832 10830 10830 10826 10827 10827 10825 10822 10821 10818 10817 10812 10804 10802 10798 10794 10785 10780 10770 10760 10752 10747 10748 10745 10739 10740 10741 10742 10736 10731 10727
10820 10821 10822 10823 10824 10824 10824 10824 10824 10825 10825 10828 10823 10823 10822 10820 10819 10819 10818 10816 10816 10810 10811 10807 10806 10806 10795 10785 10781 10783 10775 10767 10758 10747 10743 10737 10737 10734 10731 10735 10733 10737 10734 10726 10724
10810 10811 10813 10814 10815 10815 10815 10814 10814 10817 10816 10816 10813 10813 10811 10809 10810 10809 10807 10807 10809 10800 10799 10796 10793 10792 10792 10780 10775 10767 10764 10758 10749 10739 10729 10730 10732 10730 10727 10725 10724 10723 10721 10718 10714
10800 10801 10803 10803 10804 10805 10804 10803 10807 10807 10805 10803 10802 10802 10799 10800 10798 10798 10797 10799 10798 10791 10790 10789 10779 10781 10778 10768 10762 10756 10748 10746 10741 10733 10724 10713 10724 10724 10721 10719 10715 10710 10711 10709 10703
10789 10790 10791 10792 10793 10793 10792 10793 10795 10800 10789 10792 10790 10791 10787 10786 10790 10787 10778 10793 10785 10777 10779 10780 10773 10766 10767 10761 10750 10748 10739 10734 10732 10727 10719 10705 10713 10713 10713 10713 10708 10704 10697 10694 10689
10778 10780 10780 10780 10780 10781 10780 10783 10785 10788 10774 10781 10779 10778 10778 10770 10777 10774 10770 10779 10768 10768 10766 10765 10761 10753 10752 10754 10745 10735 10730 10725 10721 10717 10714 10706 10700 10704 10703 10701 10697 10695 10692 10687 10679
10766 10769 10768 10768 10769 10770 10769 10772 10771 10770 10767 10767 10766 10763 10765 10762 10757 10758 10755 10764 10756 10754 10751 10751 10749 10744 10739 10739 10734 10726 10722 10717 10715 10708 10702 10699 10697 10698 10699 10694 10689 10685 10681 10673 10671
10756 10757 10763 10758 10761 10761 10760 10761 10759 10756 10758 10756 10754 10751 10750 10748 10746 10746 10739 10748 10743 10742 10738 10736 10735 10734 10726 10727 10724 10717 10711 10707 10704 10701 10694 10690 10687 10692 10689 10684 10681 10678 10671 10663 10660
10747 10747 10755 10750 10751 10751 10752 10750 10748 10750 10745 10747 10745 10737 10738 10735 10733 10731 10727 10736 10730 10725 10728 10725 10720 10720 10718 10711 10713 10706 10704 10698 10696 10691 10686 10681 10676 10680 10675 10674 10672 10667 10659 10653 10648
10738 10740 10741 10741 10742 10737 10740 10738 10736 10737 10739 10732 10732 10724 10726 10725 10718 10719 10718 10716 10718 10717 10713 10712 10709 10707 10703 10702 10697 10698 10693 10690 10686 10682 10679 10676 10668 10669 10667 10662 10658 10651 10646 10640 10632
10729 10728 10724 10730 10732 10726 10727 10726 10727 10725 10726 10723 10715 10715 10710 10711 10708 10704 10700 10700 10709 10707 10704 10701 10693 10693 10689 10689 10686 10684 10681 10678 10676 10675 10666 10664 10666 10657 10654 10654 10649 10643 10634 10623 10612
10716 10714 10717 10715 10719 10717 10711 10716 10715 10713 10709 10706 10709 10702 10697 10696 10690 10691 10689 10690 10688 10694 10693 10688 10687 10683 10677 10676 10674 10675 10672 10665 10668 10666 10659 10649 10649 10647 10644 10640 10636 10632 10615 10603 10595